Tracking 30995 objects as of 5-Jul-2025
HD Live streaming from Space Station
objects crossing your sky now

FENGYUN 1C DEB

Track FENGYUN 1C DEB now!
10-day predictions


NORAD ID: 32156
Int'l Code: 1999-025CTA
Perigee: 734.2 km
Apogee: 853.2 km
Inclination: 99.3 °
Period: 100.6 minutes
Semi major axis: 7164 km
RCS: 0.0148 m2 (small)
Launch date: May 10, 1999
Source: People's Republic of China (PRC)
Launch site: Taiyaun Space Center, China (TSC)

Note: This is SATELLITE DEBRIS
Your satellite tracking list
Your tracking list is empty




NASA's NSSDC Master Catalog

Two Line Element Set (TLE):
1 32156U 99025CTA 25185.70126421  .00000756  00000-0  29176-3 0  9992
2 32156  99.3446 342.9326 0083024 160.2410 200.2019 14.31549543625167
Source of the keplerian elements: AFSPC